Location: Unspecified
(44.0704°N, 88.6889°W)
Time: 22:14:21
(UTC+02:00)

CZ-3 Stage 3 - Pass Details

Date: 27 March 2019
Orbit: 493 x 34699 km, 30.5° (Epoch: 22 April)

Event Time Altitude Azimuth Distance (km) Brightness Sun altitude
Exits shadow 11:01:55 18° 222° (SW) 4,669 5.9 -18.9°
Maximum altitude 11:17:40 58° 150° (SSE) 6,976 7.3 -16.2°
Drops below altitude 10° 19:59:10 10° 163° (SSE) 17,823 10.1 46.6°
Sets 20:14:23 0° 158° (SSE) 15,405 9.5 45.5°
